Regional Weather Roundup
Issued by NWS Cleveland, OH

Home | Current Version | Previous Version | Graphics & Text | Print | Product List | Glossary On
Versions: 1 2 3 4 5 6 7 8 9 10 11 12 13 14 15 16 17 18 19 20 21 22 23 24 25 26 27 28 29 30 31 32 33 34 35 36 37 38 39 40 41 42 43 44 45 46 47 48 49 50
000
ASUS41 KCLE 242102
RWRCLE
OHIO REGIONAL WEATHER ROUNDUP
NATIONAL WEATHER SERVICE CLEVELAND, OH
500 PM EDT THU APR 24 2014

NOTE: "FAIR" INDICATES FEW OR NO CLOUDS BELOW 12,000 FEET WITH NO
SIGNIFICANT WEATHER AND/OR OBSTRUCTIONS TO VISIBILITY.

OHZ001>008-015>018-024>027-034-035-043-044-242200-
   NORTHWEST OHIO

CITY           SKY/WX    TMP DP  RH WIND       PRES   REMARKS
DEFIANCE       CLOUDY    58  24  27 E10G23    29.98F
FINDLAY        CLOUDY    57  22  25 E12       29.98F
TOLEDO EXPRESS PTSUNNY   53  25  33 E15       30.01F
TOLEDO EXEC    PTSUNNY   52  22  30 E15       30.03F
LIMA           CLOUDY    60  21  22 SE14      29.97F
$$

OHZ009>014-019>023-028>033-038-089-242200-
   NORTHEAST OHIO

CITY           SKY/WX    TMP DP  RH WIND       PRES   REMARKS
CLE-HOPKINS    PTSUNNY   53  20  27 NE14      30.07F
CLE-LAKEFRONT  MOSUNNY   47  28  47 NE15G24   30.04F
CUY CO. ARPT   PTSUNNY   54  21  28 NE17      30.04F
LORAIN-ELYRIA  MOSUNNY   54  23  30 NE14      30.03F
ASHTABULA      SUNNY     53  18  25 N8        30.05F
AKRON-CANTON   PTSUNNY   58  18  21 CALM      30.02F
WOOSTER        MOSUNNY   57  22  25 SE7       30.02F
MANSFIELD      MOSUNNY   58  23  26 SE8       30.01F
YOUNGSTOWN     PTSUNNY   58  19  22 NE7       30.01F
$$

OHZ042-051>053-060>062-070>072-077>081-242200-
  SOUTHWEST OHIO

CITY           SKY/WX    TMP DP  RH WIND       PRES   REMARKS
CINC-COVINGTON PTSUNNY   65  31  28 SE9       29.92F
CINC-LUNKEN    MOSUNNY   63  27  25 S8        29.93F
HAMILTON       PTSUNNY   66  27  23 E8        29.93F
DAYTON         CLOUDY    62  23  22 SE10      29.95F
WRIGHT-PAT AFB DRIZZLE   63  25  23 E6        29.94F
DAYTON GENERAL PTSUNNY   63  25  23 SE9       29.93F
WILMINGTON     PTSUNNY   62  19  19 SE10      29.94F
$$

OHZ036-037-039>041-045>050-054>059-063>069-073>076-082>088-242200-
  CENTRAL AND SOUTHEAST OHIO

CITY           SKY/WX    TMP DP  RH WIND       PRES   REMARKS
COLUMBUS       CLOUDY    62  21  20 E5        29.98F
OSU AIRPORT    PTSUNNY   59  19  21 SE9       29.98F
BOLTON FIELD   PTSUNNY   61  21  21 CALM      29.98F
RICKENBACK AFB NOT AVBL
NEWARK         PTSUNNY   60  19  20 VRB6      29.98F
MARION         PTSUNNY   58  22  24 SE10      29.99F
LANCASTER      CLOUDY    63  20  19 E8        29.98F
ZANESVILLE     PTSUNNY   60  21  22 VRB3      29.99F
NEW PHILLY     SUNNY     60  19  20 VRB6      30.01F
$$



USA.gov is the U.S. government's official web portal to all federal, state and local government web resources and services.